Skip Page Navigation
NASA JPL Caltech
NASA Logo - Jet Propulsion Laboratory + View the NASA Portal
+ Center for Near-Earth Object Studies
JPL Home Earth Solar System Stars & Galaxies Technology
JPL Solar System Dynamics
BODIES ORBITS EPHEMERIDES TOOLS PHYSICAL DATA DISCOVERY FAQ SITE MAP

Significant website upgrade scheduled for September 27. More details available here.

JPL Small-Body Database Browser
Search: [ help ]  
190166 (2005 UP156)
Classification: Amor [NEO]          SPK-ID: 2190166
Ephemeris | Orbit Diagram | Orbital Elements | Mission Design | Physical Parameters | Discovery Circumstances | Close-Approach Data ]

[ show orbit diagram ]
Orbital Elements at Epoch 2459396.5 (2021-Jul-01.0) TDB
Reference: JPL 373 (heliocentric ecliptic J2000)
 Element Value Uncertainty (1-sigma)   Units 
e .4699827761916052 6.1254e-09  
a 2.115364689259628 7.1834e-09 au
q 1.121179719943695 1.3315e-08 au
i 4.208537810603282 9.58e-07 deg
node 193.3765847383016 2.227e-05 deg
peri 91.22152569790774 2.0624e-05 deg
M 105.6637093624658 2.4612e-06 deg
tp 2459066.662785084900
(2020-Aug-05.16278508)
6.1157e-06 TDB
period 1123.767072780958
3.08
5.7242e-06
1.567e-08
d
yr
n .3203510840632811 1.6318e-09 deg/d
Q 3.109549658575559 1.0559e-08 au
  Orbit Determination Parameters
   # obs. used (total)      2661  
   # delay obs. used      2  
   # Doppler obs. used      0  
   data-arc span      6623 days (18.13 yr)  
   first obs. used      2002-11-24  
   last obs. used      2021-01-11  
   planetary ephem.      DE441  
   SB-pert. ephem.      SB441-N16  
   condition code      0  
   norm. resid. RMS      .31036  
   source      ORB  
   producer      Otto Matic  
   solution date      2021-Aug-19 06:20:06  

Additional Information
 Earth MOID = .130561 au 
 Jupiter MOID = 2.09743 au 
 T_jup = 3.582 
[ show covariance matrix ]

Ephemeris | Orbit Diagram | Orbital Elements | Mission Design | Physical Parameters | Discovery Circumstances | Close-Approach Data ]

Physical Parameter Table
Parameter Symbol Value Units Sigma Reference Notes
absolute magnitude H 17.24   n/a E2021B55  
diameter diameter 1.045 km 0.025 urn:nasa:pds:neowise_diameters_albedos::2.0[neos] (http://adsabs.harvard.edu/abs/2015ApJ...814..117N)  
rotation period rot_per 40.542 h n/a LCDB (Rev. 2020-October); Warner et al., 2009 Published Reference List:
[Warner, B.D. (2015) Minor Planet Bull. 42, 41-53.]
[Behrend, R. (2017) Observatoire de Geneve web site, http://obswww.unige.ch/~behrend/page_cou.html]
[Warner, B.D.; Harris, A.W. (2017) CBET 4394.]
[Warner, B.D. (2017) Minor Planet Bull. 44, 324-325.]
[Benishek, V. (2018) Minor Planet Bull. 45, 82-91.]
geometric albedo albedo 0.234   0.033 urn:nasa:pds:neowise_diameters_albedos::2.0[neos] (http://adsabs.harvard.edu/abs/2015ApJ...814..117N)  

190166 (2005 UP156)          Discovered 2005-Oct-31 by Spacewatch at Kitt Peak
Reference: 20080819/Numbers.arcLast Updated: 2008-08-25

[ hide close-approach data ]
Close-Approach Data   ...sorted by Date/Time (TDB)
Date/Time (TDB) Time Uncertainty
(days_HH:MM)
Body Nominal Distance (au) Minimum Distance (au) Maximum Distance (au) V-relative (km/s) V-infinity (km/s) JD (TDB) Time Uncertainty (minutes) Semi-major axis (km) Semi-minor axis (km) range-LOV angle (deg) N-sigma BP Orbit Ref. Reference Modified
1900-Aug-03 19:23 00:02 Earth 0.338258476684984 0.338241358277523 0.338275595132516 12.2993612087476 12.298720748145 2415235.307924055 1.71859331053415 873.144721561137 1.94497062312647 -12.1612390947617 3609777.97229983 T 373 CATAB v2.0g-lin.ifort 2021-Aug-19 06:20:12 2021-Aug-19 06:20
1928-Jun-26 15:47 00:01 Mars 0.0897732771726407 0.0897700441327487 0.0897765107976194 9.07950092422391 9.07914968295555 2425424.157549491 1.04141129357035 395.881108012012 4.70628010213394 65.9743540621852 2655623.91942603 T 373 CATAB v2.0g-lin.ifort 2021-Aug-19 06:20:12 2021-Aug-19 06:20
1937-Jul-01 02:24 00:01 Earth 0.134367009678777 0.134365722907145 0.134368296450501 4.96913487274394 4.96514266243645 2428715.600198217 1.24623420616789 64.3929176160218 3.30211696767291 -6.25976052437183 315071.677155514 T 373 CATAB v2.0g-lin.ifort 2021-Aug-19 06:20:12 2021-Aug-19 06:20
1940-Aug-12 12:48 < 00:01 Earth 0.477375029578899 0.47736919593436 0.477380863225418 16.4685795785433 16.468240655588 2429854.033300059 0.50277843437974 294.90427099357 1.56652323671178 -9.46460253196923 5540094.05039108 T 373 CATAB v2.0g-lin.ifort 2021-Aug-19 06:20:12 2021-Aug-19 06:20
1977-Jun-23 13:50 < 00:01 Earth 0.156812206344038 0.156810202622096 0.156814210068743 6.22458537181866 6.22185502809898 2443318.076125069 0.593445905374161 105.180745844967 2.97376151713098 -18.3769430725759 1272764.80487819 T 373 CATAB v2.0g-lin.ifort 2021-Aug-19 06:20:12 2021-Aug-19 06:20
1980-Aug-10 21:16 < 00:01 Earth 0.431762141203487 0.431758920926004 0.431765361481682 15.1203930448932 15.1199849035599 2444462.385873565 0.281567081780482 162.924737399293 1.66252945128559 -9.74361282776999 4712086.475843 T 373 CATAB v2.0g-lin.ifort 2021-Aug-19 06:20:12 2021-Aug-19 06:20
2014-May-29 02:04 < 00:01 Earth 0.468686950999312 0.468686638497533 0.46868726350109 16.4106170351922 16.4102706102383 2456806.585914952 0.0262718500663063 15.7883474462178 2.11535128423646 -9.34287756161602 5412478.20642183 T 373 CATAB v2.0g-lin.ifort 2021-Aug-19 06:20:12 2021-Aug-19 06:20
2017-Jul-10 08:43 < 00:01 Earth 0.13350756141347 0.133507554841749 0.133507567985191 4.93210792864443 4.92805981975886 2457944.862874610 0.0131873763771172 3.39032455074723 0.326387682944259 -89.3636059650451 21815537.7888647 T 373 CATAB v2.0g-lin.ifort 2021-Aug-19 06:20:12 2021-Aug-19 06:20
2057-Jul-07 22:18 < 00:01 Earth 0.128292673123587 0.128292644501807 0.128292701746257 4.86684130980129 4.86257203761754 2472552.429428500 0.829825234336128 19.1315197771647 0.664919942343614 86.189650223319 14340490.5479577 T 373 CATAB v2.0g-lin.ifort 2021-Aug-19 06:20:12 2021-Aug-19 06:20
2060-Aug-16 22:52 < 00:01 Earth 0.48834301036597 0.488338429720569 0.488347591012398 17.1495220323282 17.1492038768623 2473688.452490583 0.362835660926113 231.168582777962 1.61936373606015 -8.85847295928558 5312946.62493625 T 373 CATAB v2.0g-lin.ifort 2021-Aug-19 06:20:12 2021-Aug-19 06:20
2094-Jun-09 23:52 00:01 Earth 0.321594026123093 0.321581668260539 0.321606384004292 11.66150870759 11.6607982095676 2486038.494705419 1.28913179016647 628.214816156401 2.33396388524231 -11.2372843285826 2678360.22224614 T 373 CATAB v2.0g-lin.ifort 2021-Aug-19 06:20:12 2021-Aug-19 06:20
2097-Jul-31 14:14 00:02 Earth 0.24060631501431 0.240594608567219 0.240618021512211 9.43760391497752 9.43643044876559 2487186.093283793 1.51840552779493 609.233667884566 2.28787964711174 -16.6701933790591 2732199.93261858 T 373 CATAB v2.0g-lin.ifort 2021-Aug-19 06:20:12 2021-Aug-19 06:20
2134-Jun-12 07:45 00:01 Earth 0.291649691321889 0.29164026065399 0.291659122004807 11.0706435859147 11.0698183195323 2500649.823172084 1.08744186461992 481.711132669035 2.43065574940778 -12.5458789837386 2571005.91522762 T 373 CATAB v2.0g-lin.ifort 2021-Aug-19 06:20:12 2021-Aug-19 06:20
2137-Aug-03 14:22 00:01 Earth 0.246961558038863 0.246953062243224 0.246970053859125 9.79064889978212 9.78954686331323 2501798.098532111 1.06168882824855 441.133502449484 2.2335481220153 -16.2216333300882 2854272.71984778 T 373 CATAB v2.0g-lin.ifort 2021-Aug-19 06:20:12 2021-Aug-19 06:20
2165-Jun-28 11:45 < 00:01 Mars 0.0683915820696753 0.0683914672001078 0.0683916969394216 9.47447796981747 9.47403613658421 2511988.989594975 0.0286944960669785 11.1954500817364 4.67762588302889 71.0309619924415 2109081.68768283 T 373 CATAB v2.0g-lin.ifort 2021-Aug-19 06:20:12 2021-Aug-19 06:20
2174-Jul-03 08:13 < 00:01 Earth 0.142571896229268 0.142570725304661 0.142573067154256 5.28540415239165 5.28186706677267 2515280.842215077 0.575823280049371 59.560551508985 3.21944636630037 -11.8511105785566 678748.951028249 T 373 CATAB v2.0g-lin.ifort 2021-Aug-19 06:20:12 2021-Aug-19 06:20
2177-Aug-16 17:35 < 00:01 Earth 0.463026209238824 0.463021982097056 0.463030436381567 16.1057986993716 16.105441402402 2516421.232306516 0.353708150484251 213.420561589682 1.62564467674714 -9.01820956159012 4969680.03093546 T 373 CATAB v2.0g-lin.ifort 2021-Aug-19 06:20:12 2021-Aug-19 06:20
2199-May-05 06:44 00:02 Mars 0.0857299751135869 0.0857218891480642 0.085738061889832 8.87467978407616 8.87430348772181 2524352.780625846 1.63319117755746 579.187098154949 4.76840865423354 45.8773161023052 1991673.35799368 T 373 CATAB v2.0g-lin.ifort 2021-Aug-19 06:20:12 2021-Aug-19 06:20
Ephemeris | Orbit Diagram | Orbital Elements | Mission Design | Physical Parameters | Discovery Circumstances | Close-Approach Data ]
ABOUT SSD CREDITS/AWARDS PRIVACY/COPYRIGHT GLOSSARY LINKS
FirstGov 2021-Sep-19 05:29 UT
(server date/time)  
NASA Home Page
Site Manager:   Ryan S. Park
Webmaster  Alan B. Chamberlin